Location: Unspecified
(0.0000°N, 0.0000°E)
Time: 07:15:03
(UTC+02:00)

Resurs 01 Rocket - Visible Passes

Search period start: 30 April 2016 00:00
Search period end: 10 May 2016 00:00
Orbit: 635 x 644 km, 98.2° (Epoch: 29 April)

Date Brightness Start Highest point End Pass type
(mag) Time Alt. Az. Time Alt. Az. Time Alt. Az.
30 Apr 1.7 21:14:29 10° S 21:18:53 76° W 21:23:16 10° NNW visible
01 May 3.1 21:38:11 10° SSW 21:42:12 34° WSW 21:46:12 10° NW visible
02 May 2.9 20:26:01 10° SE 20:29:18 21° ENE 20:32:35 10° NNE visible
02 May 4.3 22:02:41 10° SW 22:05:31 17° WSW 22:08:19 10° WNW visible
03 May 2.0 20:48:26 10° SSE 20:52:37 43° ENE 20:56:48 10° N visible
04 May 1.6 21:11:40 11° S 21:15:57 85° W 21:20:21 10° NNW visible
05 May 2.9 21:35:23 11° S 21:39:16 38° WSW 21:43:22 10° NNW visible
06 May 3.1 20:23:18 10° ESE 20:26:23 19° ENE 20:29:27 10° NNE visible
06 May 4.1 21:59:31 10° SSW 22:02:34 19° WSW 22:05:39 10° WNW visible
07 May 2.1 20:45:35 10° SSE 20:49:42 39° ENE 20:53:48 10° N visible
08 May 1.5 21:08:57 12° SSE 21:13:01 86° ENE 21:17:26 10° N visible
09 May 2.7 21:32:39 13° S 21:36:20 43° WSW 21:40:31 10° NNW visible
